Overview Statistics Trail Chart Weather Telemetry Raw packets
 

This is the latest recevied weather packets stored in our database for station/object DL2AKT-20. If no packets are shown the sender has not sent any weather packets the latest 10 day(s).

<< 34 35 36 37 38 39 40 >>
Time Temp. Humidity Pressure Rain* Wind** Luminosity Snow
1777390548 16.67° C 29% 1024.9 hPa - - - -
1777389648 16.67° C 29% 1024.9 hPa - - - -
1777388748 16.67° C 29% 1024.9 hPa - - - -
1777387848 17.22° C 29% 1024.9 hPa - - - -
1777386948 17.22° C 29% 1025.1 hPa - - - -
1777386048 17.22° C 29% 1025.1 hPa - - - -
1777385148 17.78° C 30% 1025.1 hPa - - - -
1777384248 17.78° C 30% 1025.2 hPa - - - -
1777383348 18.33° C 29% 1025.1 hPa - - - -
1777382448 16.67° C 32% 1025.4 hPa - - - -
1777381548 16.67° C 32% 1025.3 hPa - - - -
1777380652 17.22° C 30% 1025.5 hPa - - - -
1777379752 17.22° C 31% 1025.4 hPa - - - -
1777378852 17.22° C 32% 1025.3 hPa - - - -
1777377952 17.22° C 31% 1025.4 hPa - - - -
1777377052 18.33° C 31% 1025.4 hPa - - - -
1777376152 17.78° C 33% 1025.4 hPa - - - -
1777375252 17.78° C 33% 1025.6 hPa - - - -
1777374352 17.78° C 32% 1025.4 hPa - - - -
1777373452 17.78° C 34% 1025.4 hPa - - - -
1777372552 17.78° C 34% 1025.5 hPa - - - -
1777371652 17.78° C 32% 1025.4 hPa - - - -
1777370752 17.78° C 30% 1025.4 hPa - - - -
1777369852 17.78° C 32% 1025.5 hPa - - - -
1777368952 16.67° C 35% 1025.5 hPa - - - -

* Rain since midnight (hover to see other rain measurements)
** Current wind speed in m/s (hover to see current wind gust speed)